www.pogodaiklimat.ru

Погода и климат >> Архив погоды >> Индия >> Андхра-Прадеш >> Анантапур


ПОГОДА в Анантапуре

  • Прогноз погоды в Анантапуре
  • Монитор погоды в Анантапуре

АРХИВ ПОГОДЫ в Анантапуре

Время (UTC), дата Ветер
(напр.,м/с)
 
Видим.   Явления Облачность Т
(С)
Тd
(С)
f
(%)
Тe
(С)
Тes
(С)
Комфортность P
(гПа)
Po
(гПа)
Тmin
(С)
Tmax
(С)
R
(мм)
R24
(мм)
S
(см)
00 14.03 штиль 0 4000 м ясно +23.4 +12.1 49 +26 +26 жарко 1011.9 972.5
03 14.03 штиль 0 10 км ясно +27.4 +11.3 37 +28 +36 жарко 1014.3 975.3 +21.4 +40.2
06 14.03 штиль 0 10 км 4/0
[Ci sp]
+35.8 +6.4 16 +33 +58 опасность
солнечного
удара
1013.3 975.3
09 14.03 нст 1 10 км 4/0
[Ci sp]
+39.0 +20.0 33 +44 +60 опасность
перегрева
1008.2 970.8
12 14.03 штиль 0 10 км 6/3 600 м
[Sc Ac trans Ci sp]
+37.4 +20.9 38 +44 +45 опасность
перегрева
1007.1 969.6 +40.2
15 14.03 нст 1 10 км 8/1 600 м
[Sc Ac trans]
+35.4 +19.0 38 +40 +40 очень
душно
1009.0 971.2
18 14.03 нст 1 4000 м 6/6 600 м
[Cu Sc]
+32.4 +19.7 47 +38 +38 очень
душно
1011.1 972.9
21 14.03 штиль 0 4000 м ясно +30.0 +21.0 59 +38 +38 очень
душно
1010.7 972.1
00 15.03 штиль 0 4000 м ясно +23.4 +12.1 49 +26 +26 жарко 1011.9 972.5
03 15.03 штиль 0 10 км ясно +29.8 +11.0 31 +30 +38 жарко 1013.9 975.1 +20.6 +40.2
06 15.03 нст 1 10 км ясно +37.6 +16.4 29 +40 +63 опасность
солнечного
удара
1012.4 974.7
09 15.03 штиль 0 10 км ясно +40.2 +22.4 36 +48 +68 опасность
перегрева
1008.0 970.8
12 15.03 штиль 0 10 км ясно +37.4 +21.6 40 +45 +46 опасность
перегрева
1007.0 969.5 +40.5
15 15.03 В 3 4000 м ясно +34.4 +19.7 42 +40 +40 очень
душно
1008.4 970.3
18 15.03 В 5 4000 м 8/4 450 м
[Sc Ac As]
+30.4 +18.7 50 +36 +36 очень
душно
1011.2 972.6
21 15.03 штиль 0 4000 м ясно +27.0 +16.7 53 +31 +31 душно 1010.2 971.0
00 16.03 штиль 0 4000 м ясно +25.0 +15.0 54 +28 +28 жарко 1011.5 972.1
03 16.03 ЮВ 1 10 км ясно +29.0 +12.7 37 +30 +37 жарко 1013.6 974.6 +21.6 +40.5
06 16.03 штиль 0 10 км ясно +35.6 +7.9 18 +34 +60 опасность
солнечного
удара
1012.3 974.3
09 16.03 В 2 10 км ясно +37.2 +5.3 14 +34 +49 очень
жарко
1008.4 970.9
12 16.03 В 2 10 км ясно +36.4 +5.3 15 +34 +35 очень
жарко
1008.4 970.9 +38.2
15 16.03 В 2 10 км ясно +32.6 +10.0 25 +32 +32 жарко 1010.6 972.4
18 16.03 нст 1 4000 м ясно +29.8 +10.5 30 +30 +30 жарко 1012.2 973.5
21 16.03 нст 1 4000 м ясно +27.4 +11.8 38 +29 +29 жарко 1010.1 971.2
00 17.03 нст 1 4000 м ясно +24.8 +13.2 48 +27 +27 жарко 1011.5 972.2
03 17.03 штиль 0 10 км ясно +25.4 +16.7 59 +29 +37 душно 1014.2 975.0 +19.0 +38.2
09 17.03 В 2 10 км ясно +36.4 +11.1 22 +36 +50 очень
жарко
1008.6 971.0
12 17.03 В 3 10 км ясно +35.8 +11.2 23 +35 +36 очень
жарко
1007.4 969.5 +37.1
15 17.03 ЮВ 2 4000 м ясно +31.8 +11.7 29 +32 +32 жарко 1009.8 971.4
18 17.03 нст 1 4000 м ясно +28.8 +14.2 41 +31 +31 жарко 1010.5 971.8
21 17.03 нст 1 4000 м ясно +26.0 +15.8 53 +29 +29 душно 1009.8 970.7
00 18.03 штиль 0 4000 м ясно +21.0 +13.7 63 +23 +23 комфорт 1011.1 971.3
03 18.03 ЮВ 2 10 км ясно +27.8 +15.8 48 +31 +37 душно 1012.4 973.4 +18.9 +37.1
06 18.03 нст 1 10 км ясно +34.4 +15.2 32 +36 +59 опасность
солнечного
удара
1011.5 973.5
09 18.03 штиль 0 10 км ясно +37.8 +13.0 23 +38 +58 опасность
солнечного
удара
1007.7 970.2
12 18.03 штиль 0 10 км ясно +37.2 +13.5 24 +37 +39 очень
жарко
1006.4 969.0 +38.5
15 18.03 В 3 4000 м ясно +33.6 +10.0 24 +33 +33 жарко 1008.1 970.1
18 18.03 В 3 4000 м ясно +29.0 +14.4 41 +31 +31 жарко 1010.4 971.7
21 18.03 нст 1 4000 м ясно +26.0 +16.3 55 +29 +29 душно 1009.0 969.9
00 19.03 нст 1 4000 м ясно +24.8 +18.5 68 +29 +29 душно 1009.4 970.2
03 19.03 ЮВ 2 10 км ясно +27.4 +19.7 63 +33 +39 очень
душно
1011.0 972.1 +23.1 +38.5
06 19.03 З 3 10 км ясно +35.8 +19.2 38 +41 +59 опасность
перегрева
1009.1 971.3
09 19.03 штиль 0 10 км 5/5 600 м
[Cu Sc]
+38.6 +15.7 26 +40 +50 очень
душно
1004.9 967.6
12 19.03 СВ 3 10 км 4/4 600 м
[Cu Sc]
+37.6 +15.1 26 +39 +39 очень
душно
1003.7 966.3 +41.3
15 19.03 В 2 4000 м ясно +34.4 +10.8 24 +34 +34 очень
жарко
1006.2 968.4
18 19.03 В 3 4000 м ясно +32.2 +12.3 30 +33 +33 жарко 1007.2 969.1
21 19.03 нст 1 4000 м 4/0
[Ac trans]
+29.2 +13.9 39 +31 +31 жарко 1006.7 968.2
00 20.03 штиль 0 4000 м 3/0
[Ac trans]
+25.8 +14.8 51 +29 +29 душно 1007.6 968.6
03 20.03 штиль 0 10 км 3/0
[Ac trans Ci sp]
+29.2 +18.6 53 +34 +42 очень
душно
1010.1 971.5 +24.7 +41.3
06 20.03 Ю 2 10 км 3/3 600 м
[Cu Sc]
+35.4 +19.0 38 +40 +54 опасность
солнечного
удара
1009.0 971.2
09 20.03 нст 1 10 км 5/5 600 м
[Cu Sc]
+39.8 +16.6 26 +42 +51 опасность
перегрева
1005.2 968.0
12 20.03 В 2 10 км 3/3 600 м
[Cu Sc]
+37.8 +14.0 24 +38 +39 очень
жарко
1004.0 966.6 +41.0
15 20.03 В 3 4000 м 3/0
[Ac trans]
+34.8 +10.5 23 +34 +34 очень
жарко
1006.6 968.8
18 20.03 В 4 4000 м 3/0
[Ci sp]
+31.8 +12.6 31 +32 +32 жарко 1008.9 970.6

 

Местоположение метеостанции Анантапур (Андхра-Прадеш, Индия): широта 14.58 долгота 77.63 высота над уровнем моря 364 м.

В архиве по умолчанию представлена погода в Анантапуре за последнюю неделю. Архивные данные за месяц целиком и за предыдущие месяцы, начиная с января 2011 года, Вы можете получить, выбрав интересующий диапазон дат из раскрывающегося списка и нажав кнопку "Ввод!".


*Определитесь, кто Вы:
робот инопланетянин человек

Внимание! Время в таблицах - всемирное. Для получения местного времени необходимо прибавить поправку, которая равна 5.5 ч.

Смотрите также архив погоды в соседних городах и на ближайших метеорологических станциях:

Погода в Беллари (Карнатака, Индия) (105 км)
Погода в Чикканахолли (Карнатака, Индия) (106 км)
Погода в Читрадурге (Карнатака, Индия) (135 км)
Погода в Карнуле (Андхра-Прадеш, Индия) (144 км)
Погода в Маданапалле (Андхра-Прадеш, Индия) (150 км)
Погода в Чинтамани (Карнатака, Индия) (161 км)
Погода в Бенгалуру (Карнатака, Индия) (179 км)
Погода в Коппале (Карнатака, Индия) (181 км)
Погода в Бенгалуру аэропорту (Карнатака, Индия) (181 км)
Погода в Райчуре (Карнатака, Индия) (183 км)

Пояснения к столбцам:

Ветер - указаны скорость ветра в м/с - средняя за 10 мин, порывы в срок и между сроками (в фигурных скобках) и направление, откуда дует ветер: С - северный, СВ - северо-восточный, В - восточный, ЮВ - юго-восточный, Ю - южный, ЮЗ - юго-западный, З - западный, СЗ - северо-западный.
Видимость - горизонтальная дальность видимости в метрах или километрах. При видимости от 1 до 10 км при отсутствии осадков обычно наблюдается дымка, при ухудшении видимости до 1 км и менее - туман. В сухую погоду видимость может ухудшаться дымом, пылью или мглою.
Явления - указаны атмосферные явления, наблюдавшиеся в срок или в последний час перед сроком; фигурными скобками обозначены явления, наблюдавшиеся между сроками (за 1-3 часа до срока); квадратными скобками обозначены град или гололедные отложения с указанием их диаметра в мм.
Облачность - указаны через наклонную черту общая и нижняя облачность в баллах и высота нижней границы облаков в метрах; квадратными скобками обозначены формы облаков: Ci - перистые, Cs - перисто-слоистые, Cc - перисто-кучевые, Ac - высококучевые, As - высокослоистые, Sc - слоисто-кучевые, Ns - слоисто-дождевые, Cu - кучевые, Cb - кучево-дождевые. Подробнее классификацию облаков см. в Атласе облаков (PDF).
T - Температура воздуха - температура, измеренная на высоте 2 м над землей.
Td - Температура точки росы - температура, при понижении до которой содержащийся в воздухе водяной пар достигнет насыщения.
f - Относительная влажность воздуха - влажноcть воздуха, измеренная на высоте 2 м над землей.
Te - Эффективная температура - температура, которую ощущает одетый по сезону человек в тени. Характеристика душности погоды. При расчете учитывается влияние влажности воздуха и скорости ветра на теплоощущения человека.
Tes - Эффективная температура на солнце - температура, которую ощущает человек, с поправкой на солнечный нагрев. Характеристика знойности погоды. Зависит от высоты солнца над горизонтом, облачности и скорости ветра. Ночью, в пасмурную погоду, а также при ветре 12 м/с и более поправка равна нулю.
P - Атмосферное давление - приведенное к уровню моря атмосферное давление.
Po - Атмосферное давление - измеренное на уровне метеостанции атмосферное давление.
Tmin - Минимальная температура - минимум температуры воздуха на высоте 2 м над землей.
Tmax - Максимальная температура - максимум температуры воздуха на высоте 2 м над землей.
R - Количество осадков - Количество выпавших осадков за период времени, мм. При наведении курсора мыши на число - период времени, за который выпало указанное количество осадков.
R24 - Количество осадков - Количество выпавших осадков за 24 часа, мм.
S - Снежный покров - Высота снежного покрова, см. При наведении курсора мыши на число - состояние снежного покрова и степень покрытия местности в баллах.